Terug naar catalogus

STARLINK-11591

ActiefCommunicatieVLEO
NORAD 63116·PAYLOAD·🇺🇸 United States

Gelanceerd Feb 27, 2025 vanaf Cape Canaveral Space Force Station

Loading…

Volgende Passages (komende 24 uur)

TLE

VersSource: CelesTrak SupGP

Epoch: Sep 15, 2026, 02:18 UTC

1 63116C 25039N   26258.09631944 -.00035414  00000+0 -27511-3 0  2580
2 63116  43.0004 174.7757 0001599 271.4463 264.8057 15.70851437    13

Volg STARLINK-11591 in realtime met AllMySat

Download on the App Store